Probability
0 0 0 0 0 0 0 0 0 0 0 1 1 1 5 10 12 12 13 17 22 25 24 24 25 23 23 27 34 38 37 37 37 35 32 29 25 23 23 23 21 19 18 17
0 0 0 0 0 0 0 0 0 0 0 0 0 1 5 9 11 9 10 13 17 19 21 23 24 23 23 27 33 38 40 39 37 35 32 29 27 25 23 21 20 18 16 15
0 0 0 0 0 0 0 0 0 0 0 0 0 1 6 10 9 7 6 7 11 14 17 20 22 23 23 25 30 36 40 41 38 33 28 26 24 22 19 18 18 17 14 12
0 0 0 0 0 0 0 0 0 0 0 0 0 1 6 10 9 6 5 6 9 12 15 18 20 20 20 21 25 31 35 37 35 30 24 21 19 16 14 16 18 18 15 14
0 0 0 0 0 0 0 0 0 0 0 0 0 1 5 10 9 6 5 7 9 12 14 15 16 17 16 18 22 26 29 30 30 26 21 18 14 11 11 14 18 20 18 16
0 0 0 0 0 0 0 0 0 0 0 0 0 1 5 9 9 6 5 7 9 11 13 14 15 16 16 17 19 22 25 26 25 21 17 14 10 8 9 11 14 15 15 14
0 0 0 0 0 0 0 0 0 0 0 0 1 3 6 8 7 6 6 8 9 10 13 15 15 16 16 16 16 18 21 22 19 16 13 10 8 7 7 7 8 8 9 10
0 0 0 0 0 0 0 0 0 0 0 0 1 3 5 6 5 5 7 8 8 10 12 14 15 16 16 14 12 13 16 16 14 12 11 10 9 8 8 7 5 4 5 6
0 0 0 0 0 0 0 0 0 0 0 0 0 2 4 4 4 5 6 7 7 9 11 11 13 15 16 14 12 11 12 12 12 10 9 9 10 9 9 7 6 5 4 4
0 0 0 0 0 0 0 0 0 0 0 0 0 2 4 5 4 4 5 5 7 9 10 10 10 13 16 14 12 10 10 10 9 8 7 8 9 10 9 9 8 8 6 5
0 0 0 0 0 0 0 0 0 0 0 0 0 1 3 6 6 5 4 5 6 9 10 9 8 11 13 12 11 9 9 8 7 7 7 7 7 9 9 9 9 9 9 8
0 0 0 0 0 0 0 0 0 0 0 0 0 1 3 6 6 5 5 5 6 8 9 8 8 9 10 9 8 8 8 7 7 7 7 7 7 7 8 8 9 10 10 10
0 0 0 0 0 0 0 0 0 0 0 0 0 1 4 6 6 6 6 6 5 6 6 7 6 7 8 8 7 7 7 7 7 7 8 8 7 6 6 8 9 10 11 12
0 0 0 0 0 0 0 0 0 0 0 0 0 2 5 5 5 4 5 6 5 4 5 7 8 9 11 11 8 7 6 7 7 7 7 7 6 5 5 7 9 10 11 12
0 0 0 0 0 0 0 0 0 0 0 0 1 3 5 5 4 3 3 5 5 3 4 8 11 12 13 13 11 9 7 6 6 5 5 5 5 4 5 6 7 9 11 10
0 0 0 0 0 0 0 0 0 0 0 0 1 3 4 4 3 2 3 4 3 2 3 7 12 14 15 14 13 11 8 5 4 4 4 4 5 4 4 4 5 6 8 9
1 1 0 0 0 0 0 0 0 0 0 0 1 1 2 2 2 2 3 4 2 1 2 6 11 15 16 14 13 11 9 7 5 4 3 3 4 3 3 3 3 4 6 7
0 0 0 0 0 0 0 0 0 0 0 1 1 1 1 2 2 3 3 3 3 3 5 7 10 13 14 14 12 11 10 8 6 4 3 3 3 3 3 3 3 5 6 7
0 0 0 0 0 0 0 0 0 0 0 1 1 0 0 2 3 3 3 3 4 7 9 9 9 9 11 13 13 11 9 6 5 4 3 3 3 3 3 4 5 7 8 9
1 1 0 0 0 0 0 0 0 0 0 1 1 1 1 3 4 4 4 4 5 8 9 9 8 7 10 11 11 10 8 6 4 4 3 3 4 4 4 6 8 9 10 10
0 0 0 0 0 0 0 0 0 1 1 2 2 2 3 5 6 5 4 4 4 6 7 8 7 8 9 10 10 9 8 7 6 5 4 5 6 6 6 8 11 13 12 10
0 0 0 0 0 0 0 0 0 1 2 2 2 2 3 4 5 4 4 3 3 3 4 5 6 8 10 10 10 10 10 9 9 8 8 8 9 8 8 8 10 13 13 10
0 0 0 0 0 0 0 0 0 1 1 1 1 1 1 1 1 1 2 2 2 2 3 4 4 6 9 10 10 9 10 11 10 10 9 9 9 9 8 6 6 9 10 9
0 0 0 0 0 0 0 0 0 0 0 0 0 0 0 0 0 0 1 1 2 4 5 4 3 4 6 7 7 7 7 8 9 8 7 7 7 6 6 5 4 5 7 7
0 0 0 0 0 0 0 0 0 0 0 0 0 0 0 0 0 0 0 1 2 4 5 5 4 3 3 4 4 4 5 5 6 5 5 5 5 4 4 5 4 4 5 6
0 0 0 1 1 1 0 0 0 0 0 0 0 0 0 0 0 0 0 0 1 2 4 6 5 4 3 3 3 3 4 5 5 5 4 4 4 4 4 4 4 4 4 4
Wind_Speed
10 10 8 7 7 7 10 10 8 6 2 3 3 3 1 4 4 4 4 4 4 4 4 4 4 5 5 4 3 3 2 2 2 2 1 1 1 1 1 1 1 1 1 1
9 8 7 7 8 8 10 10 9 4 3 4 5 5 2 4 5 5 4 4 4 4 4 5 4 3 3 3 2 2 2 2 2 1 1 1 1 1 1 1 1 2 2 2
8 5 4 7 8 9 10 9 8 6 6 7 6 5 2 5 5 4 3 3 5 4 4 4 4 4 3 2 2 2 2 1 2 2 1 1 1 2 1 1 1 2 2 2
9 5 5 6 7 10 9 8 9 9 9 8 8 6 2 6 6 5 5 5 5 5 4 4 3 4 4 4 3 2 1 1 1 2 2 2 2 2 2 2 2 2 2 2
7 5 6 7 7 9 11 11 13 12 11 10 8 6 2 7 5 4 3 3 4 5 4 4 4 4 5 4 4 3 2 2 2 2 2 3 3 2 2 2 2 3 2 2
7 4 4 6 8 8 11 13 14 10 7 7 5 5 2 4 4 3 4 4 4 4 5 5 4 4 3 3 3 3 2 2 3 3 3 3 4 4 4 4 3 3 2 2
8 4 2 4 7 7 9 9 7 7 5 5 6 4 3 5 5 5 5 5 4 5 5 4 4 4 3 3 3 2 2 2 3 3 4 3 4 4 4 4 3 3 3 2
8 4 1 2 4 7 8 8 7 8 8 7 6 3 5 6 7 6 6 6 6 7 6 5 4 3 3 3 2 2 2 2 2 3 3 4 4 3 3 3 4 4 3 2
8 7 5 4 5 6 7 7 9 9 10 7 2 2 3 5 6 6 7 6 6 6 6 5 5 4 3 3 2 2 2 2 2 3 4 4 3 3 4 4 4 3 3 3
7 9 8 4 6 4 5 6 6 7 7 8 5 3 3 4 5 5 5 6 6 6 6 6 5 4 3 2 1 1 2 2 3 4 4 4 3 4 4 4 4 3 3 3
6 7 8 6 4 7 7 7 6 6 7 7 7 4 5 6 8 8 7 7 6 6 5 5 5 5 3 3 3 2 2 2 3 4 4 4 4 4 4 4 4 4 3 4
6 5 8 8 4 5 5 6 6 6 7 7 6 3 5 6 7 6 7 7 7 6 6 6 6 6 5 4 4 3 3 4 3 3 3 4 4 4 4 4 4 4 4 4
7 4 7 3 1 2 4 5 5 5 5 5 6 4 4 6 6 6 6 7 6 6 6 6 6 5 5 5 4 4 4 4 4 4 4 4 5 4 4 4 4 3 3 3
4 4 6 8 8 9 8 8 7 6 6 6 7 8 7 9 9 9 7 7 6 6 6 6 6 5 5 5 5 5 5 5 5 5 5 5 4 4 4 3 2 3 2 2
3 5 7 9 10 9 9 10 9 6 7 7 8 7 7 8 8 9 8 7 7 7 7 7 6 6 5 5 5 5 6 6 6 5 5 4 4 3 3 2 2 2 2 3
2 6 9 10 10 8 9 8 8 7 7 6 6 6 7 7 8 8 8 8 8 8 8 7 7 6 6 6 6 6 6 6 6 5 5 5 4 3 3 3 2 2 3 2
4 6 8 9 8 9 6 6 6 6 7 7 6 7 8 8 8 8 8 9 9 8 8 8 7 6 6 6 5 5 6 5 5 5 4 4 3 3 3 4 3 3 3 2
5 6 6 9 9 8 2 5 5 5 6 7 7 8 9 7 7 6 8 9 9 9 9 8 7 6 5 6 5 5 6 5 5 5 4 4 3 3 3 3 3 3 2 2
4 4 6 6 7 4 2 5 5 5 5 8 8 8 9 8 6 5 9 10 9 9 8 7 6 6 5 6 5 6 6 6 6 5 5 5 4 4 3 3 3 2 2 2
5 5 6 7 8 6 4 6 6 5 1 8 9 9 10 10 6 5 9 10 10 8 7 7 7 6 5 5 5 6 6 6 6 6 5 5 4 4 4 3 3 2 2 3
4 6 7 7 8 2 6 6 6 4 5 8 8 9 9 8 6 6 8 8 8 8 7 7 7 6 5 5 5 6 6 6 6 6 5 5 4 4 3 2 2 2 3 3
5 5 5 5 6 2 7 6 5 5 5 7 8 8 9 8 7 8 8 8 8 8 8 8 7 6 5 5 6 6 6 6 6 6 6 5 4 5 4 2 2 2 2 2
3 4 5 5 3 4 4 4 3 3 5 6 7 8 8 8 8 9 9 8 7 8 7 7 8 7 6 5 5 6 6 6 6 6 5 5 5 4 3 3 3 2 2 2
2 3 3 4 2 3 3 4 5 5 6 7 7 7 8 9 9 9 8 8 8 7 7 7 8 8 7 6 5 5 6 5 6 6 5 5 4 4 4 3 2 2 2 2
6 4 4 4 4 5 4 5 6 6 7 7 7 7 8 8 9 9 7 7 7 7 6 6 7 7 8 7 6 6 6 5 6 6 5 5 4 4 3 2 2 2 1 1
5 4 4 4 4 4 5 5 7 7 7 7 8 8 8 8 8 8 7 7 7 7 6 7 7 8 7 7 7 6 6 5 5 5 5 5 4 4 3 2 1 1 2 1
Wind_Direction
240 242 252 265 271 277 287 293 282 273 291 314 302 294 300 119 115 110 107 94 82 66 61 67 66 70 73 67 59 55 44 45 28 25 354 331 320 315 279 243 282 306 291 276
249 246 276 285 279 278 287 285 283 295 354 319 292 286 260 135 142 124 111 104 87 67 47 48 52 57 81 92 86 86 59 36 6 17 312 276 302 284 257 227 223 245 251 261
264 289 297 296 299 297 288 292 308 312 304 283 269 268 193 122 107 99 84 91 82 71 50 43 35 32 42 66 68 58 61 41 352 340 302 321 307 287 303 298 270 260 251 247
275 284 295 292 300 306 301 311 300 292 283 280 278 278 167 135 106 72 44 33 51 52 54 49 22 20 18 33 46 49 62 49 351 319 324 314 297 301 305 298 280 290 278 268
283 306 306 302 311 310 305 306 291 282 276 276 282 284 94 104 92 67 54 32 38 41 37 35 32 28 18 16 38 36 33 11 346 308 297 294 305 306 302 298 290 275 261 252
276 282 299 310 314 306 309 304 295 279 278 275 315 317 11 66 73 71 74 49 32 39 30 32 30 32 20 17 26 29 34 11 348 333 325 308 302 300 294 286 285 278 260 249
270 241 253 318 310 316 322 315 313 315 304 303 326 325 40 84 74 61 61 58 30 31 31 29 23 8 13 17 11 12 28 4 342 334 327 312 299 289 280 282 287 287 282 267
304 298 355 346 313 313 315 315 316 307 301 303 313 2 71 63 63 53 55 48 36 28 20 11 8 350 355 2 3 2 4 338 331 333 320 306 297 287 288 292 290 285 282 279
322 318 337 341 313 304 313 319 316 297 290 292 299 108 93 53 52 45 35 37 30 25 12 0 358 351 358 355 357 352 350 326 325 325 315 303 301 300 296 289 276 281 285 282
314 306 305 319 307 281 308 316 316 314 310 306 313 347 34 41 30 24 15 16 21 18 2 353 348 347 359 0 9 9 352 333 322 319 318 321 315 304 296 290 288 284 283 286
324 301 300 301 309 331 334 335 333 317 316 315 311 341 36 30 30 11 1 8 18 10 358 345 341 349 8 6 1 4 357 328 320 320 325 325 313 303 296 284 281 279 274 275
349 314 300 302 340 348 337 333 333 328 326 319 304 322 46 41 27 14 360 3 9 3 355 356 357 6 1 357 355 354 344 328 321 322 325 312 309 305 296 290 281 270 266 266
347 309 291 272 280 356 338 329 326 316 301 300 300 318 42 38 12 6 7 5 2 1 354 354 2 5 354 348 348 344 333 324 320 322 320 318 314 309 302 295 289 279 269 263
303 296 297 309 318 325 318 318 323 318 309 309 315 324 3 7 359 2 9 7 357 354 355 360 3 4 360 351 343 341 332 326 319 318 320 320 316 308 307 299 291 295 287 273
313 291 295 300 304 308 309 309 315 317 313 309 320 334 1 6 358 354 352 353 347 350 355 359 3 3 357 345 340 342 331 325 322 322 320 320 319 325 321 324 328 306 293 291
304 296 299 292 289 294 297 303 307 313 321 318 325 347 12 10 8 356 353 353 355 351 349 354 359 355 349 339 338 340 334 328 327 326 318 319 329 330 327 330 328 319 313 314
288 286 290 286 294 292 295 336 334 335 344 339 344 360 6 357 3 1 357 356 354 346 346 349 351 348 341 336 340 335 325 326 323 322 317 312 324 328 336 337 330 322 316 310
276 293 286 285 289 287 6 9 5 352 6 10 3 6 6 3 6 11 11 1 352 346 350 352 346 343 337 333 335 327 323 324 321 320 316 319 323 326 331 332 329 323 314 297
221 268 281 284 292 288 335 13 2 346 6 20 9 1 355 358 345 24 12 359 352 352 353 347 338 338 334 334 335 328 322 321 320 323 327 331 328 327 323 324 321 300 294 285
190 215 259 282 296 307 5 23 0 320 352 18 7 359 351 347 330 350 354 347 347 352 353 345 337 337 338 336 333 325 321 322 323 326 325 326 325 321 320 318 314 306 285 275
237 237 252 280 288 335 35 14 343 326 9 4 1 357 351 352 343 336 337 341 346 348 346 340 335 332 329 327 325 320 323 325 321 318 317 317 314 307 298 297 299 291 280 284
290 285 280 282 287 357 28 15 23 18 4 357 355 356 351 343 337 335 334 337 344 345 345 343 334 330 327 326 324 323 322 320 320 316 316 315 313 313 321 323 302 284 278 278
303 339 331 337 358 52 40 38 28 7 350 346 345 349 341 331 329 332 334 337 340 339 342 340 335 332 328 325 325 321 319 321 322 321 321 321 325 324 321 315 305 296 295 286
298 359 318 304 305 3 6 12 10 4 352 343 342 340 333 333 335 337 339 336 335 337 338 336 333 328 325 325 325 323 322 323 319 319 319 318 318 315 316 311 308 315 315 312
324 313 300 295 318 331 353 5 350 349 346 339 336 332 332 334 333 331 332 329 327 332 333 330 325 322 324 326 328 327 324 324 320 319 319 315 308 305 309 312 328 327 339 314
288 292 291 308 345 332 337 347 348 344 337 334 331 329 329 330 330 330 327 325 329 328 324 322 322 323 325 325 324 324 323 321 318 315 313 310 310 305 293 283 296 335 243 234